This is the latest recevied weather packets stored in our database for station/object N8XHB. If no packets are shown the sender has not sent any weather packets the latest 10 day(s).
| Time | Temp. | Humidity | Pressure | Rain* | Wind** | Luminosity | Snow |
|---|---|---|---|---|---|---|---|
| 1777646619 | 5.56° C | 60% | 1015.6 hPa | 0 mm | - | 251 W/m² | - |
| 1777646316 | 5.56° C | 62% | 1015.6 hPa | 0 mm | - | 240 W/m² | - |
| 1777646013 | 5° C | 61% | 1015.5 hPa | 0 mm | - | 241 W/m² | - |
| 1777645709 | 5° C | 64% | 1015.8 hPa | 0 mm | - | 207 W/m² | - |
| 1777645406 | 5° C | 64% | 1015.3 hPa | 0 mm | - | 171 W/m² | - |
| 1777645101 | 5° C | 65% | 1015.3 hPa | 0 mm | - | 113 W/m² | - |
| 1777644798 | 5° C | 64% | 1015.3 hPa | 0 mm | - | 79 W/m² | - |
| 1777644496 | 5° C | 63% | 1015.5 hPa | 0 mm | - | 80 W/m² | - |
| 1777644192 | 5° C | 64% | 1015.7 hPa | 0 mm | - | 98 W/m² | - |
| 1777643889 | 5° C | 62% | 1015.5 hPa | 0 mm | - | 107 W/m² | - |
| 1777643587 | 5° C | 62% | 1015.5 hPa | 0 mm | - | 114 W/m² | - |
| 1777643283 | 5° C | 61% | 1015.5 hPa | 0 mm | - | 125 W/m² | - |
| 1777642979 | 5° C | 62% | 1015.3 hPa | 0 mm | - | 130 W/m² | - |
| 1777642675 | 4.44° C | 65% | 1015.3 hPa | 0 mm | - | 115 W/m² | - |
| 1777642373 | 4.44° C | 64% | 1015.1 hPa | 0 mm | - | 106 W/m² | - |
| 1777642069 | 4.44° C | 63% | 1015.5 hPa | 0 mm | - | 85 W/m² | - |
| 1777641766 | 4.44° C | 62% | 1015.2 hPa | 0 mm | - | 73 W/m² | - |
| 1777641466 | 4.44° C | 63% | 1015 hPa | 0 mm | - | 65 W/m² | - |
| 1777641162 | 4.44° C | 62% | 1015 hPa | 0 mm | - | 70 W/m² | - |
| 1777640858 | 4.44° C | 61% | 1014.9 hPa | 0 mm | - | 81 W/m² | - |
| 1777640555 | 4.44° C | 63% | 1015 hPa | 0 mm | - | 93 W/m² | - |
| 1777640251 | 4.44° C | 61% | 1014.9 hPa | 0 mm | - | 104 W/m² | - |
| 1777639948 | 4.44° C | 62% | 1014.9 hPa | 0 mm | - | 109 W/m² | - |
| 1777639645 | 4.44° C | 61% | 1015 hPa | 0 mm | - | 116 W/m² | - |
| 1777639342 | 4.44° C | 62% | 1014.9 hPa | 0 mm | - | 115 W/m² | - |
* Rain latest hour (hover to see other rain measurements)
** Current wind speed in m/s (hover to see current wind gust speed)